Temperature
9 9 9 8 8 8 8 7 7 7 7 6 6 6 5 5 4 4 4 3 3 3 2 2 2 1 1 -0 -1 -2 -3 -4 -5 -4 -4 -4 -4 -4 -4 -4 -4 -3 -3
8 8 8 8 7 7 7 7 6 6 6 6 5 5 5 5 5 4 3 3 3 2 2 2 1 1 0 -0 -1 -2 -3 -4 -4 -5 -5 -5 -5 -5 -5 -5 -4 -4 -4
8 7 7 7 7 7 6 6 6 5 5 5 5 5 5 5 4 4 3 3 2 2 2 1 1 1 0 -0 -1 -2 -2 -3 -4 -5 -6 -6 -6 -6 -6 -5 -5 -5 -5
7 7 7 6 6 6 6 5 5 5 4 4 4 4 4 4 4 3 3 2 2 1 1 1 0 0 -0 -1 -1 -2 -3 -4 -5 -5 -6 -6 -7 -6 -7 -6 -6 -5 -5
6 6 6 6 5 5 5 5 4 4 4 3 3 3 3 3 3 3 2 2 1 1 1 0 -0 -1 -1 -2 -3 -3 -4 -5 -5 -6 -7 -7 -7 -7 -7 -6 -6 -6 -6
5 5 5 5 5 4 4 4 3 3 3 2 2 2 2 2 2 1 1 1 0 0 0 0 -0 -1 -2 -3 -4 -4 -5 -5 -6 -6 -7 -7 -7 -7 -7 -7 -7 -7 -7
5 5 4 4 4 3 3 3 2 2 2 1 1 1 1 1 1 1 0 -0 -1 -1 -1 -1 -1 -2 -2 -3 -3 -4 -4 -5 -5 -6 -6 -6 -7 -6 -7 -7 -7 -7 -7
4 4 4 3 3 2 2 2 1 1 1 0 0 0 0 0 0 -0 -1 -1 -1 -1 -1 -2 -2 -3 -3 -4 -4 -4 -5 -5 -5 -5 -6 -6 -6 -6 -6 -7 -7 -7 -7
3 3 3 2 2 1 1 1 0 -0 -0 -0 -1 -1 -1 -1 -1 -1 -1 -1 -2 -2 -2 -2 -3 -3 -3 -4 -5 -5 -5 -5 -6 -6 -6 -6 -6 -6 -6 -7 -7 -7 -8
2 2 1 1 0 0 -0 -0 -1 -1 -1 -1 -1 -1 -1 -1 -1 -1 -2 -2 -3 -3 -3 -3 -3 -4 -4 -5 -5 -5 -6 -6 -6 -6 -6 -6 -6 -6 -6 -6 -7 -7 -8
1 1 0 0 -0 -1 -1 -1 -1 -2 -2 -2 -2 -2 -2 -2 -2 -2 -2 -3 -3 -3 -4 -4 -4 -4 -5 -5 -5 -5 -6 -6 -6 -7 -7 -7 -7 -7 -6 -6 -7 -7 -7
0 -0 -0 -1 -1 -1 -2 -2 -2 -2 -3 -3 -3 -2 -2 -2 -2 -3 -3 -3 -3 -4 -4 -4 -4 -5 -5 -5 -5 -5 -5 -6 -6 -6 -7 -7 -6 -6 -6 -6 -7 -7 -7
-1 -1 -1 -2 -2 -2 -3 -3 -3 -3 -3 -3 -3 -3 -3 -3 -3 -3 -3 -3 -4 -4 -4 -4 -5 -5 -5 -5 -5 -5 -5 -5 -6 -6 -6 -6 -6 -6 -6 -7 -7 -7 -7
-2 -2 -2 -3 -3 -3 -3 -3 -4 -4 -4 -4 -4 -4 -4 -3 -3 -3 -3 -3 -4 -4 -4 -5 -5 -5 -5 -6 -6 -6 -6 -6 -6 -6 -6 -6 -6 -6 -7 -7 -7 -8 -8
-3 -3 -3 -3 -4 -4 -4 -4 -4 -4 -4 -4 -4 -4 -4 -4 -4 -4 -4 -4 -4 -4 -4 -5 -5 -6 -6 -6 -6 -6 -6 -6 -6 -6 -6 -6 -7 -7 -7 -7 -8 -8 -9
-4 -4 -4 -4 -4 -4 -5 -5 -4 -4 -4 -4 -4 -4 -4 -4 -4 -4 -4 -4 -4 -4 -5 -5 -5 -6 -6 -6 -6 -6 -6 -6 -6 -6 -6 -7 -7 -7 -7 -8 -8 -9 -9
-4 -4 -5 -5 -5 -5 -5 -5 -5 -5 -4 -4 -4 -4 -4 -4 -4 -4 -4 -4 -4 -5 -5 -5 -6 -6 -6 -6 -6 -6 -6 -6 -6 -7 -7 -7 -7 -8 -8 -8 -9 -9 -10
-5 -5 -5 -5 -5 -6 -6 -6 -5 -5 -5 -5 -4 -4 -4 -4 -4 -5 -5 -5 -5 -5 -5 -5 -6 -6 -6 -6 -6 -6 -6 -6 -7 -7 -7 -7 -8 -8 -8 -9 -9 -10 -10
-5 -5 -6 -6 -6 -6 -6 -6 -5 -5 -5 -5 -5 -4 -4 -5 -5 -5 -5 -5 -5 -5 -5 -5 -6 -6 -6 -6 -6 -6 -7 -7 -7 -7 -7 -8 -8 -8 -9 -9 -9 -10 -10
-6 -6 -6 -6 -6 -6 -6 -6 -6 -5 -5 -5 -5 -5 -5 -5 -5 -5 -5 -5 -5 -6 -6 -6 -6 -6 -6 -6 -6 -7 -7 -7 -7 -7 -8 -8 -8 -9 -9 -9 -10 -10 -11
-6 -6 -6 -6 -6 -6 -6 -6 -6 -6 -6 -6 -5 -5 -5 -5 -5 -5 -5 -5 -6 -6 -6 -6 -6 -6 -6 -7 -7 -7 -7 -7 -7 -8 -8 -8 -9 -9 -9 -10 -10 -10 -11
-6 -6 -6 -6 -6 -6 -6 -6 -6 -6 -6 -6 -5 -5 -5 -5 -5 -6 -6 -6 -6 -6 -6 -6 -6 -6 -7 -7 -7 -7 -7 -7 -8 -8 -8 -9 -9 -9 -10 -10 -10 -10 -11
-6 -6 -6 -6 -6 -6 -6 -6 -6 -6 -6 -6 -6 -6 -6 -6 -6 -6 -6 -6 -6 -6 -6 -6 -6 -7 -7 -7 -7 -7 -7 -7 -8 -8 -9 -9 -9 -9 -10 -10 -10 -11 -11
-6 -7 -7 -7 -6 -6 -6 -6 -6 -6 -6 -6 -6 -6 -6 -6 -6 -6 -6 -6 -6 -6 -6 -7 -7 -7 -7 -7 -7 -7 -8 -8 -8 -8 -9 -9 -9 -10 -10 -10 -11 -11 -11
-7 -7 -7 -7 -7 -6 -6 -6 -6 -6 -6 -6 -6 -6 -6 -6 -7 -7 -7 -7 -7 -6 -7 -7 -7 -7 -7 -7 -7 -7 -8 -8 -8 -9 -9 -9 -10 -10 -10 -10 -11 -11 -11
-7 -7 -7 -7 -7 -7 -6 -6 -6 -6 -6 -7 -7 -7 -7 -7 -7 -7 -7 -7 -7 -7 -7 -7 -7 -7 -7 -7 -7 -8 -8 -8 -9 -9 -9 -10 -10 -10 -10 -11 -11 -11 -12
Wind_Speed
7 7 7 8 8 8 8 10 10 10 10 11 12 12 13 14 14 15 17 16 18 18 17 18 20 16 15 13 12 13 14 14 20 13 7 8 10 10 11 14 17 17 19
7 7 7 8 8 8 9 10 9 10 10 10 11 11 13 13 13 15 17 17 17 19 18 18 19 16 18 15 14 15 15 15 17 19 9 8 12 10 10 10 11 16 17
7 7 8 8 8 9 10 10 9 9 10 10 10 11 12 13 13 14 16 16 17 18 17 18 18 17 18 15 16 16 14 15 15 16 14 9 10 9 10 11 13 10 15
7 8 8 9 9 10 10 9 9 9 10 11 11 11 12 12 12 13 13 14 15 16 16 17 17 18 18 17 16 16 14 14 13 14 14 10 10 7 7 11 12 10 12
8 9 9 10 9 9 9 10 10 10 10 10 11 11 11 10 11 12 12 13 14 15 15 15 16 20 24 20 15 12 12 13 13 14 14 12 11 9 10 10 13 10 10
9 10 10 10 10 10 10 10 10 10 10 10 11 12 12 11 18 22 17 12 13 14 15 14 15 20 25 30 31 28 22 17 16 16 15 15 12 12 11 11 11 11 10
10 10 11 10 11 11 11 10 11 10 10 11 11 11 12 15 22 23 23 14 11 12 13 13 12 14 20 14 22 29 27 31 28 19 18 17 15 13 12 14 14 13 14
10 11 11 11 11 12 11 11 11 10 10 11 12 12 12 15 22 23 23 15 11 11 12 13 13 13 14 14 13 14 15 16 19 16 16 16 15 12 13 15 14 14 12
11 11 11 11 12 12 12 12 11 11 11 11 11 12 13 15 21 23 22 9 9 11 11 11 13 13 20 24 16 14 14 14 21 27 25 21 24 26 20 13 13 12 13
12 12 12 12 12 13 13 13 12 11 12 11 11 11 13 13 19 22 22 8 9 9 8 9 17 17 20 22 15 13 15 13 11 12 16 19 17 18 24 16 11 12 10
12 12 12 12 12 13 13 11 12 12 12 12 12 12 11 14 17 21 21 9 8 9 8 7 9 19 21 22 20 13 17 14 9 11 11 11 10 10 11 10 10 11 12
12 13 13 12 12 12 12 13 12 12 13 12 12 12 9 11 15 16 20 19 16 9 9 7 9 18 20 21 17 17 22 19 10 10 11 11 10 10 9 10 11 11 12
14 13 13 13 11 11 12 13 13 11 11 11 11 12 11 9 11 19 20 21 20 11 8 13 15 18 18 14 18 20 17 11 9 10 10 10 9 8 7 6 7 8 9
15 14 13 13 13 11 10 10 11 11 12 12 12 12 11 10 9 8 9 11 13 11 8 11 15 16 13 12 12 10 7 7 8 8 7 7 6 6 7 6 6 6 7
14 14 13 12 13 12 11 11 13 12 14 15 12 12 13 13 13 19 15 8 7 8 7 5 4 5 5 6 6 6 6 5 6 5 6 6 6 6 6 6 5 5 7
14 13 11 11 11 11 12 13 18 19 24 25 23 21 15 19 24 24 23 20 18 15 10 5 6 6 6 7 6 6 6 6 6 5 5 6 6 6 6 5 5 6 9
14 14 12 11 11 12 12 13 15 16 20 21 22 22 21 22 23 22 20 17 15 14 8 5 5 6 6 6 6 6 6 6 6 6 6 5 5 5 5 6 6 7 9
13 16 15 11 12 12 13 13 13 14 15 12 14 19 21 21 21 19 18 13 8 6 5 5 5 5 5 6 6 6 5 5 5 5 5 5 5 5 6 6 7 8 9
13 11 11 11 11 12 12 13 13 13 13 13 12 13 17 17 17 16 13 6 6 5 5 5 5 5 5 5 5 5 5 5 5 5 5 6 5 5 6 7 8 13 12
11 20 19 13 12 12 12 12 12 12 12 12 12 11 10 10 8 7 6 5 5 5 5 5 4 5 5 5 5 5 5 5 5 5 5 5 5 5 7 8 8 9 10
11 14 21 16 12 13 12 12 12 12 12 12 11 12 17 10 8 7 6 5 4 4 4 4 4 4 4 4 4 5 5 5 5 5 5 5 5 6 6 7 8 9 10
11 12 12 13 12 12 13 12 12 12 12 13 11 11 16 10 7 7 5 5 4 4 4 4 4 4 4 5 5 5 5 5 5 5 5 5 5 6 7 7 8 9 10
12 13 13 12 12 16 15 11 11 12 12 11 10 10 9 7 7 6 5 4 3 3 3 3 3 3 3 4 4 4 5 5 5 5 5 5 6 6 7 8 10 11 11
12 13 13 13 12 12 12 12 11 11 11 10 9 9 8 7 6 5 4 4 3 2 2 2 3 4 4 3 3 3 3 4 4 4 6 6 7 7 7 8 10 11 11
11 12 13 13 12 12 12 12 11 11 10 9 9 8 7 6 5 4 4 3 2 1 1 1 1 2 4 4 3 3 5 7 7 5 5 5 6 7 8 9 9 11 11
11 13 13 12 11 11 11 11 11 10 9 9 8 7 7 5 4 4 3 2 1 1 1 1 1 2 2 2 3 5 7 8 9 10 5 4 5 7 8 9 11 11 12
Wind_Direction
303 294 290 288 284 280 272 270 269 270 267 262 257 252 249 247 242 239 240 237 237 238 234 234 236 232 234 231 228 228 230 231 251 255 210 206 207 221 238 235 234 240 247
303 300 294 292 293 289 282 278 276 275 272 267 264 260 256 252 245 241 243 241 239 240 237 236 238 234 234 232 230 231 231 229 240 254 236 213 219 221 228 235 242 244 243
307 308 305 302 298 292 287 285 283 279 279 276 269 264 261 257 251 246 244 244 241 240 238 236 238 233 236 233 230 232 231 232 233 245 247 226 227 226 230 240 243 243 247
309 307 303 297 293 289 287 286 283 281 280 279 275 269 264 260 256 253 248 247 245 243 240 238 237 233 235 233 233 232 230 231 231 238 245 236 232 221 224 239 248 242 246
309 306 298 294 293 292 290 286 284 282 280 277 279 278 272 266 261 256 251 249 248 248 245 242 239 239 238 238 237 232 226 230 231 236 242 240 234 226 228 230 243 248 248
305 300 298 299 299 296 292 289 287 285 282 280 277 277 276 275 277 279 272 249 243 244 247 245 243 249 251 251 249 242 229 225 228 231 236 236 232 227 229 231 237 244 254
302 301 301 300 299 296 294 292 288 287 283 281 278 276 274 276 285 287 284 276 250 243 243 244 246 243 247 241 249 252 250 242 232 225 232 232 229 224 224 232 234 237 245
303 300 300 299 296 295 293 290 288 284 282 281 280 278 276 279 288 291 290 283 265 250 242 238 240 240 237 237 234 238 242 246 246 240 232 231 229 225 220 229 236 244 252
303 300 299 297 296 295 293 291 289 288 286 282 280 279 279 282 288 292 291 276 266 259 248 240 241 240 247 250 242 235 238 240 247 246 245 241 235 232 227 227 233 241 253
300 298 297 294 293 294 292 291 290 287 287 286 283 279 277 278 286 292 292 275 267 266 256 245 254 254 251 252 244 234 237 236 228 240 248 253 252 249 245 233 229 242 256
297 297 296 293 291 292 291 290 292 292 290 288 286 282 278 279 287 291 292 284 263 264 261 250 245 259 260 254 246 235 239 235 220 224 231 236 239 240 243 237 228 232 246
297 297 296 293 292 297 293 295 293 292 293 292 289 288 282 281 285 288 290 289 285 268 260 251 247 258 259 258 253 244 241 240 228 222 225 229 230 232 231 229 230 230 235
301 298 297 296 293 291 292 296 298 295 293 293 292 292 291 283 283 290 292 292 290 283 264 264 262 261 261 260 257 253 246 237 226 222 219 223 224 223 220 223 230 235 243
301 301 300 300 300 294 290 291 294 294 293 293 293 292 291 289 285 280 275 279 280 280 280 276 278 277 265 252 250 254 243 230 224 223 218 218 211 210 217 218 230 237 254
300 301 301 297 298 299 294 291 292 285 286 292 292 290 293 295 292 294 292 275 253 249 256 249 247 252 245 241 234 227 222 226 230 216 214 215 216 220 226 216 223 235 252
305 304 303 301 300 298 299 299 293 291 294 294 293 293 292 291 298 301 300 297 292 278 269 245 238 235 236 232 224 218 215 218 219 218 216 214 217 223 232 230 230 240 257
300 302 302 299 300 300 301 301 303 302 298 296 296 297 299 300 302 302 301 298 293 287 269 246 240 233 230 223 216 213 214 215 209 211 214 214 217 224 234 243 246 252 260
300 301 303 299 298 298 298 298 298 301 305 303 299 300 302 303 304 304 303 301 291 280 249 239 237 230 221 215 211 210 211 210 208 212 213 214 217 226 240 249 252 255 265
302 300 299 297 297 297 297 297 297 297 298 300 301 301 304 305 303 302 304 288 276 264 243 231 228 222 217 211 208 208 209 212 211 208 215 218 220 228 245 252 257 266 272
300 304 309 305 302 300 299 299 300 299 298 298 300 301 304 300 293 294 286 268 259 253 238 229 222 215 210 207 206 206 210 213 212 215 221 224 227 234 248 256 260 266 270
299 301 305 305 299 298 299 299 299 298 297 298 297 299 305 303 298 293 287 272 257 249 235 223 217 211 208 203 203 205 209 215 216 219 225 231 235 247 254 259 263 267 273
298 298 298 298 299 301 301 299 298 296 297 298 301 303 307 302 293 290 284 276 260 246 229 217 216 212 205 202 201 204 212 221 224 225 231 238 245 254 260 264 269 274 277
298 299 301 301 302 303 304 299 297 298 299 300 301 301 301 298 295 288 283 279 268 250 224 207 209 209 207 204 201 201 213 226 227 224 235 249 255 260 266 271 275 280 281
303 305 305 305 304 302 301 300 299 300 299 301 300 301 301 297 295 292 289 285 273 244 213 205 206 207 205 204 206 210 219 229 228 232 238 251 261 270 274 276 279 281 284
307 306 306 305 304 302 302 301 301 300 302 304 304 303 301 299 296 296 296 294 279 245 216 198 198 205 210 213 215 227 246 256 264 264 252 255 263 271 277 280 283 286 285
307 307 306 304 302 301 302 303 304 305 306 306 304 301 299 298 297 296 294 285 275 272 255 217 209 209 213 223 235 252 268 275 280 283 279 264 271 280 285 287 287 288 288
Height
1475 1472 1468 1465 1461 1458 1454 1450 1446 1442 1438 1434 1430 1427 1424 1421 1419 1417 1414 1413 1411 1409 1409 1408 1407 1409 1409 1410 1411 1411 1412 1412 1406 1402 1408 1410 1413 1416 1419 1420 1421 1421 1421
1471 1467 1463 1459 1455 1451 1447 1443 1438 1434 1430 1426 1422 1418 1415 1412 1409 1406 1403 1402 1400 1398 1397 1397 1396 1398 1397 1398 1399 1398 1399 1399 1398 1393 1396 1399 1401 1404 1407 1408 1409 1410 1410
1466 1461 1457 1453 1448 1444 1440 1435 1431 1426 1422 1418 1413 1409 1405 1402 1398 1395 1392 1390 1388 1386 1386 1385 1384 1386 1384 1385 1386 1385 1386 1387 1387 1385 1384 1388 1390 1393 1394 1395 1397 1397 1398
1460 1456 1451 1447 1442 1437 1433 1428 1423 1419 1414 1409 1404 1400 1396 1392 1388 1385 1381 1378 1376 1374 1373 1373 1372 1372 1372 1373 1373 1373 1374 1375 1375 1375 1374 1377 1379 1381 1383 1383 1384 1386 1386
1455 1450 1446 1441 1436 1431 1425 1420 1415 1410 1405 1400 1395 1390 1386 1382 1378 1374 1371 1367 1365 1363 1361 1361 1360 1360 1360 1360 1360 1360 1362 1362 1363 1364 1364 1366 1368 1370 1371 1372 1373 1374 1374
1449 1445 1439 1434 1428 1423 1418 1412 1407 1401 1396 1391 1386 1381 1377 1373 1369 1365 1361 1357 1354 1352 1350 1349 1348 1349 1348 1349 1350 1350 1350 1350 1351 1352 1352 1354 1356 1359 1362 1363 1364 1364 1363
1444 1438 1433 1427 1421 1415 1410 1404 1398 1392 1387 1382 1377 1372 1367 1363 1360 1356 1352 1348 1344 1342 1340 1338 1337 1336 1337 1336 1337 1339 1340 1340 1340 1340 1340 1341 1345 1349 1352 1354 1354 1353 1353
1437 1431 1426 1419 1413 1407 1401 1395 1389 1383 1378 1372 1367 1363 1358 1354 1351 1346 1343 1339 1335 1332 1330 1329 1327 1326 1326 1326 1325 1325 1326 1328 1330 1331 1330 1332 1336 1339 1342 1344 1345 1345 1344
1430 1424 1418 1412 1405 1398 1392 1386 1380 1374 1368 1363 1358 1354 1349 1344 1342 1338 1334 1329 1325 1323 1321 1319 1318 1316 1316 1316 1315 1314 1314 1315 1318 1321 1323 1325 1327 1330 1332 1334 1335 1335 1333
1422 1416 1410 1404 1397 1390 1384 1378 1372 1366 1359 1354 1349 1345 1341 1336 1332 1329 1325 1320 1316 1313 1311 1309 1309 1307 1306 1306 1306 1305 1305 1305 1308 1310 1313 1315 1318 1321 1324 1325 1325 1326 1325
1414 1408 1402 1396 1390 1382 1375 1369 1363 1357 1351 1345 1340 1336 1332 1328 1323 1320 1316 1312 1308 1305 1302 1300 1299 1298 1298 1298 1298 1297 1297 1299 1300 1302 1304 1306 1309 1311 1313 1315 1316 1317 1316
1406 1399 1393 1387 1381 1374 1367 1360 1355 1349 1342 1336 1331 1326 1323 1320 1316 1311 1308 1305 1302 1298 1294 1292 1291 1290 1289 1289 1290 1290 1291 1293 1294 1295 1296 1298 1300 1302 1304 1306 1307 1307 1307
1397 1390 1384 1377 1371 1366 1359 1352 1346 1340 1335 1329 1324 1318 1314 1311 1307 1304 1300 1297 1294 1291 1287 1285 1284 1283 1282 1282 1282 1284 1285 1286 1287 1288 1289 1291 1293 1295 1296 1297 1298 1298 1297
1389 1381 1375 1368 1362 1356 1351 1345 1339 1333 1327 1322 1317 1312 1307 1303 1299 1296 1292 1289 1286 1283 1281 1278 1277 1276 1276 1275 1276 1277 1278 1279 1281 1282 1283 1285 1287 1288 1288 1289 1289 1289 1286
1380 1373 1367 1360 1354 1347 1342 1337 1331 1326 1322 1316 1311 1306 1301 1296 1292 1289 1286 1281 1278 1276 1273 1271 1270 1269 1269 1269 1270 1271 1272 1274 1275 1276 1278 1279 1280 1280 1281 1281 1281 1280 1278
1372 1365 1359 1352 1346 1340 1333 1327 1322 1319 1313 1309 1305 1300 1295 1291 1286 1282 1278 1275 1272 1270 1268 1265 1264 1263 1263 1263 1264 1265 1267 1268 1269 1271 1272 1273 1273 1273 1273 1273 1273 1272 1269
1366 1359 1352 1345 1339 1333 1327 1320 1313 1308 1305 1301 1297 1292 1288 1283 1278 1274 1270 1267 1265 1263 1261 1259 1259 1258 1258 1258 1259 1261 1262 1263 1264 1265 1266 1267 1267 1267 1267 1266 1265 1263 1261
1359 1352 1346 1339 1333 1327 1321 1315 1309 1303 1297 1291 1288 1285 1280 1275 1271 1267 1264 1261 1258 1256 1255 1254 1254 1253 1254 1254 1255 1256 1257 1258 1259 1260 1260 1261 1261 1260 1260 1258 1257 1255 1253
1352 1345 1338 1332 1326 1320 1315 1309 1304 1298 1292 1286 1281 1276 1273 1269 1265 1261 1258 1255 1252 1251 1250 1249 1249 1249 1250 1250 1251 1252 1253 1253 1254 1254 1255 1255 1255 1254 1253 1251 1250 1248 1245
1345 1339 1333 1326 1319 1314 1308 1303 1298 1292 1287 1281 1276 1271 1266 1262 1258 1255 1253 1250 1248 1246 1245 1245 1245 1245 1246 1246 1247 1248 1248 1249 1249 1249 1249 1249 1249 1248 1246 1245 1243 1240 1237
1337 1331 1325 1319 1313 1308 1302 1297 1292 1286 1281 1276 1271 1267 1263 1259 1254 1251 1248 1246 1244 1243 1242 1241 1241 1242 1242 1243 1243 1244 1244 1244 1244 1244 1244 1243 1243 1242 1240 1238 1236 1233 1229
1331 1325 1319 1313 1307 1302 1296 1291 1286 1281 1275 1271 1266 1262 1258 1254 1250 1246 1244 1242 1240 1239 1238 1238 1238 1239 1239 1240 1240 1241 1241 1240 1240 1240 1239 1238 1237 1236 1234 1231 1229 1226 1222
1325 1319 1313 1307 1302 1296 1290 1285 1280 1275 1270 1266 1261 1257 1253 1249 1246 1243 1240 1238 1237 1236 1236 1236 1236 1236 1237 1237 1237 1237 1237 1237 1236 1236 1235 1233 1232 1230 1228 1225 1222 1218 1214
1319 1313 1307 1301 1295 1290 1284 1279 1275 1270 1266 1261 1257 1253 1249 1245 1242 1240 1237 1236 1235 1234 1234 1234 1234 1234 1235 1235 1235 1234 1234 1234 1233 1232 1231 1229 1227 1225 1222 1219 1215 1211 1207
1313 1307 1301 1295 1290 1284 1279 1274 1270 1265 1261 1257 1252 1248 1245 1242 1239 1237 1235 1234 1233 1232 1232 1232 1233 1233 1233 1233 1232 1232 1231 1230 1229 1228 1227 1225 1222 1220 1216 1213 1209 1204 1200
1306 1301 1295 1290 1284 1279 1274 1270 1265 1261 1256 1252 1248 1244 1241 1239 1236 1234 1233 1232 1231 1231 1231 1231 1231 1231 1231 1231 1230 1229 1228 1227 1226 1225 1223 1221 1218 1214 1211 1206 1202 1198 1193